Zurück zum Katalog

COSMOS 249 DEB *

AktivLEO
NORAD 4008·DEBRIS·🇷🇺 Russia

Gestartet Oct 20, 1968 von Baikonur Cosmodrome

Loading…

Nächste Überflüge (nächste 24 Stunden)

TLE

AktuellSource: Space-Track

Epoche: Sep 14, 2026, 21:10 UTC

1 04008U 68091BY  26257.88262991  .00001390  00000-0  37313-3 0  9996
2 04008  62.8531 314.6529 0483783 215.8528 140.9146 13.99927633853253

Verfolge COSMOS 249 DEB * in Echtzeit mit AllMySat

Download on the App Store